Lid_Strength_Index
2 2 3 3 3 3 2 1 0 0 1 1 1 1 2 2 3 7 10 10 13 19 17 13 12 16 16 16 19 19 17 18 19 21 23 25 29 24 26 22 22 23 25 27 27 26 25 14 15 17 14 12 11 12
0 1 2 2 3 3 3 2 2 -0 1 1 1 2 2 2 3 6 11 8 9 14 15 11 11 10 11 11 16 21 17 18 15 21 23 24 27 28 26 27 17 23 20 21 21 21 14 14 15 14 16 13 11 11
-0 -0 1 1 1 2 2 2 2 -0 1 1 1 1 2 2 3 6 9 9 12 16 15 15 14 11 9 9 9 15 19 13 15 14 19 22 24 21 26 25 23 19 21 19 19 15 14 13 12 11 11 12 10 10
-1 -1 0 1 1 1 1 3 4 0 1 1 1 2 2 2 3 5 9 10 12 16 18 17 11 13 10 9 9 11 14 15 15 16 22 23 23 16 21 16 18 16 17 19 17 14 12 12 12 12 11 11 12 13
-1 -0 0 1 0 1 2 5 4 1 1 1 1 2 2 3 4 7 9 10 10 12 18 20 15 14 13 12 10 10 11 13 14 14 16 19 16 15 16 17 17 15 15 16 17 13 14 13 13 13 13 13 13 14
-1 -0 1 0 1 1 3 4 4 0 1 1 2 2 2 3 4 8 10 8 9 11 16 20 17 19 17 14 13 13 13 18 15 12 18 18 14 13 20 25 18 16 16 15 16 16 15 12 11 13 14 14 14 16
-0 0 0 0 0 2 4 3 3 1 1 1 1 2 2 3 8 11 13 9 7 10 17 21 21 18 19 18 19 14 11 11 17 19 19 15 13 11 14 16 18 16 16 14 14 15 14 13 15 13 14 14 15 16
-0 0 -0 0 2 3 4 4 0 0 1 1 2 2 3 4 6 8 7 6 9 17 19 24 23 20 19 21 21 18 21 14 16 19 18 19 16 14 16 20 17 16 16 14 15 15 15 15 14 15 16 17 18 19
0 0 0 1 2 3 4 0 0 0 1 1 2 4 7 9 10 9 6 8 12 15 23 27 24 24 21 23 22 21 16 22 21 25 23 20 26 23 23 21 21 19 18 18 18 18 18 20 19 19 20 20 21 20
1 1 2 2 3 4 4 0 1 1 2 2 6 11 14 9 5 7 13 15 18 24 21 23 29 23 19 24 26 25 27 28 27 24 21 24 28 20 20 21 19 18 19 26 24 24 23 23 22 22 23 23 22 23
2 2 3 3 3 3 1 1 1 2 3 12 17 17 11 8 13 19 24 22 27 25 25 28 26 25 19 24 26 19 26 26 28 23 24 28 28 21 21 20 18 19 22 25 28 26 26 27 27 26 25 25 25 25
3 4 4 4 3 0 1 2 2 6 12 12 13 13 15 20 23 22 31 32 29 25 30 25 25 23 23 20 25 24 27 26 28 24 24 29 22 21 21 21 21 25 27 29 33 30 30 30 30 30 29 29 29 28
4 4 4 3 0 1 2 3 5 5 7 14 17 21 19 26 25 26 29 29 29 32 29 26 26 26 26 23 28 28 28 27 27 27 27 24 21 21 21 22 24 24 28 31 30 31 32 32 32 34 31 29 29 28
3 3 1 1 1 2 3 4 4 7 13 17 20 24 25 28 27 27 26 25 26 29 29 29 30 26 29 26 30 28 28 27 30 29 25 25 23 23 23 23 24 25 25 27 27 28 30 29 29 28 28 27 26 26
2 1 1 2 3 3 3 4 7 12 16 21 20 25 28 31 34 37 39 31 31 31 27 27 28 24 31 28 32 30 30 31 27 25 26 25 24 24 24 25 25 25 25 26 25 26 26 26 26 26 25 25 25 25
2 2 4 3 3 4 5 7 11 16 21 21 25 26 33 27 28 32 36 31 31 28 30 27 32 30 30 30 29 31 32 30 25 28 26 25 25 25 25 25 25 25 25 25 26 26 26 26 27 26 25 25 25 25
3 6 3 3 4 5 6 12 15 20 23 24 27 35 31 29 26 31 33 29 23 27 27 31 29 28 28 31 31 33 30 28 29 29 29 28 27 26 25 25 25 25 26 26 26 26 26 26 26 26 27 26 25 25
6 4 3 3 6 9 14 15 18 21 26 28 24 29 33 34 31 33 34 27 26 30 30 27 26 30 30 31 31 32 32 32 31 32 31 30 31 30 27 27 27 26 27 27 27 27 28 28 28 28 27 27 26 26
5 4 4 4 8 14 15 17 18 23 28 32 32 30 31 30 30 30 32 29 31 29 26 30 29 31 31 35 34 35 37 36 34 32 32 33 33 33 30 31 31 32 31 32 32 33 34 36 36 35 34 34 35 33
5 6 7 8 9 16 18 20 24 23 27 27 30 30 29 29 29 31 34 31 31 31 28 32 33 35 33 35 35 34 35 34 35 35 33 33 33 34 32 34 31 32 33 35 35 35 36 35 39 39 40 41 39 35
9 9 9 13 18 22 26 31 27 29 30 27 33 31 29 31 33 33 32 32 29 36 32 37 37 36 38 37 37 36 34 34 34 33 34 33 30 33 32 33 36 37 38 40 40 36 39 40 38 40 43 41 42 40
16 10 17 16 21 24 25 29 25 30 26 31 31 33 33 31 33 33 33 30 35 35 37 35 36 37 36 35 34 37 35 37 38 36 32 32 33 33 32 36 38 37 39 40 42 40 38 38 40 40 44 39 39 38
13 15 20 20 20 22 25 29 26 31 26 28 34 30 33 34 33 31 32 37 35 33 35 35 34 37 36 37 37 35 36 36 36 36 37 38 40 37 39 40 44 42 38 38 44 42 40 39 39 39 40 40 42 39
16 25 26 27 24 27 30 30 34 32 33 31 32 31 32 33 31 31 33 38 33 33 33 34 38 36 35 36 36 37 37 39 40 37 43 43 40 38 44 40 44 44 42 41 43 42 40 41 39 41 42 43 43 41
20 26 26 28 33 27 29 30 30 29 32 38 32 30 32 35 32 34 33 34 33 33 34 36 37 37 36 38 38 37 38 37 37 39 38 44 45 42 38 42 43 41 46 41 38 39 38 38 38 39 40 43 40 37
29 34 30 35 31 29 30 30 33 32 34 28 32 34 34 31 29 30 31 31 33 34 36 36 36 36 36 35 34 35 35 38 40 40 36 41 42 40 42 43 42 36 46 43 43 42 39 36 39 36 35 34 34 35
31 33 35 36 35 37 34 36 36 34 34 32 33 32 30 30 31 31 30 30 32 33 33 32 32 33 32 31 31 32 33 36 35 33 35 39 38 38 37 39 38 36 43 42 41 40 39 36 35 34 32 31 32 31
36 38 31 34 36 39 36 39 37 36 37 38 37 35 32 33 32 34 32 31 30 30 31 30 31 32 33 32 32 34 35 42 38 36 43 42 44 42 42 42 40 32 34 34 34 34 35 34 32 31 30 29 28 33
35 39 37 35 38 38 41 38 37 38 38 38 36 37 36 36 34 35 33 31 31 31 32 31 31 33 32 34 38 41 43 44 39 36 38 37 38 37 44 42 38 37 36 35 31 27 28 27 26 26 27 28 27 27
36 42 37 41 37 37 37 39 38 38 39 39 39 37 37 34 33 33 34 35 33 32 31 30 30 34 34 37 35 35 45 47 44 39 39 38 37 37 37 36 35 33 32 33 32 31 27 28 29 33 34 32 31 31
45 41 38 39 36 35 38 39 41 41 41 41 41 39 38 38 33 32 35 35 34 32 32 30 30 30 35 34 38 38 37 43 44 40 40 39 38 37 36 34 33 32 31 32 33 31 31 31 31 31 31 31 30 30
39 41 37 35 33 35 36 36 36 38 37 38 36 37 36 34 35 34 31 34 31 32 31 31 31 31 29 31 35 36 34 34 35 36 37 35 35 34 33 32 31 30 30 30 30 30 31 33 32 32 31 31 30 30
42 44 43 39 37 36 38 38 38 36 36 36 36 39 38 35 34 32 33 35 35 35 31 30 30 30 30 31 33 35 36 38 38 33 30 29 30 29 29 28 29 29 29 29 29 30 31 32 32 31 31 31 31 30